Home   Weather   Thiès   Past weeks

Flag for Senegal Past Weather in Thiès, Senegal — Yesterday and Last 2 Weeks

Now
75 °F

Clear.


Feels Like: 75 °F
Forecast: 74 / 100 °F
Wind: 6 mph from North

Location: Dakar / Yoff

Current Time: Dec 3, 2016 at 2:36:42 am

Latest Report: Dec 3, 2016 at 2:00 am


Visibility: 10 mi

Pressure: 29.89 "Hg

Humidity: 89%

Dew Point: 72 °F

Location of ThièsLocation

Past Weather in Thiès — Graph

°F

Thiès Temperature Yesterday

Maximum temperature yesterday: 86 °F (at 2:00 pm)
Minimum temperature yesterday: 77 °F (at 1:00 am)
Average temperature yesterday: 80 °F

High & Low Weather Summary for the Past Weeks

 TemperatureHumidityPressure
High95 °F (Nov 20, 1:30 pm)100% (Nov 30, 6:30 am)32.81 "Hg (Nov 30, 6:30 am)
Low72 °F (Nov 30, 3:30 am)15% (Nov 20, 1:30 pm)29.74 "Hg (Nov 22, 3:00 am)
Average80 °F70%29.88 "Hg
* Reported Nov 18 1:00 am — Dec 3 1:00 am, Thiès, Weather by CustomWeather, © 2016

Note: Actual official high and low records may vary slightly from our data, if they occured in-between our weather recording intervals... More about our weather records

Advertising

Thiès Weather History for the Previous 24 Hours

Scroll right to see more
 ConditionsComfort  
Time TempWeatherWind HumidityBarometerVisibility
1:00 am
Sat, Dec 3
75 °FClear.6 mph89%29.92 "Hg10 mi
12:30 am75 °FClear.7 mph89%29.92 "Hg10 mi
12:00 am79 °FClear.N/A79%29.92 "Hg10 mi
11:30 pm
Fri, Dec 2
79 °FClear.7 mph79%29.92 "Hg10 mi
11:00 pm77 °FClear.6 mph83%29.92 "Hg10 mi
10:30 pm77 °FClear.6 mph83%29.92 "Hg10 mi
10:00 pm77 °FClear.6 mph79%29.92 "Hg10 mi
9:30 pm77 °FClear.5 mph79%29.92 "Hg10 mi
8:30 pm81 °FClear.8 mph70%29.89 "Hg10 mi
8:00 pm81 °FClear.10 mph70%29.89 "Hg10 mi
7:30 pm81 °FClear.10 mph70%29.86 "Hg10 mi
7:00 pm81 °FClear.10 mph70%29.86 "Hg10 mi
6:30 pm81 °FSunny.12 mph74%29.83 "Hg10 mi
6:00 pm82 °FSunny.13 mph70%29.83 "Hg10 mi
5:30 pm82 °FSunny.14 mph70%29.83 "Hg10 mi
5:00 pm84 °FSunny.13 mph62%29.83 "Hg10 mi
4:30 pm84 °FSunny.13 mph62%29.83 "Hg10 mi
4:00 pm86 °FSunny.15 mph55%29.83 "Hg10 mi
3:30 pm86 °FSunny.16 mph59%29.83 "Hg10 mi
3:00 pm86 °FWarm.N/A55%29.83 "HgN/A
2:30 pm84 °FSunny.18 mph58%29.83 "Hg10 mi
2:00 pm86 °FSunny.14 mph52%29.86 "Hg10 mi
1:30 pm84 °FSunny.14 mph58%29.89 "Hg10 mi
1:00 pm84 °FSunny.16 mph58%29.89 "Hg10 mi
12:30 pm84 °FPassing clouds.16 mph58%29.89 "HgN/A
12:00 pm82 °FSunny.16 mph62%29.92 "Hg10 mi
11:30 am82 °FSunny.15 mph62%29.92 "Hg10 mi
11:00 am82 °FSunny.15 mph62%29.92 "Hg10 mi
10:30 am82 °FSunny.16 mph62%29.95 "Hg10 mi
10:00 am81 °FSunny.14 mph70%29.92 "Hg10 mi
9:30 am81 °FSunny.14 mph70%29.92 "Hg10 mi
9:00 am79 °FSunny.13 mph74%29.92 "Hg10 mi
8:30 am79 °FSunny.13 mph74%29.92 "Hg10 mi
8:01 am77 °FSunny.13 mph79%29.89 "Hg10 mi
7:30 am77 °FSunny.14 mph79%29.89 "Hg10 mi
7:00 am77 °FClear.13 mph79%29.89 "Hg10 mi
6:30 am77 °FClear.14 mph79%29.89 "Hg10 mi
6:00 am77 °FClear.13 mph79%29.89 "Hg10 mi
5:30 am77 °FClear.13 mph83%29.89 "Hg10 mi
5:00 am77 °FClear.13 mph83%29.89 "Hg10 mi
4:30 am77 °FClear.13 mph83%29.89 "Hg10 mi
4:00 am77 °FClear.13 mph83%29.89 "Hg10 mi
3:30 am77 °FClear.14 mph83%29.89 "Hg10 mi
3:00 am79 °FClear.14 mph79%29.92 "Hg10 mi
2:30 am77 °FClear.13 mph83%29.92 "Hg10 mi
2:00 am79 °FClear.12 mph79%29.95 "Hg10 mi
Weather by CustomWeather, © 2016

See weather overviewHow to use our weather pages